Location: Detroit
(42.3310°N, 83.0460°W)
Time: 10:40:25
(UTC-05:00)

Envisat - Visible Passes

Search period start: 03 December 2022 00:00
Search period end: 13 December 2022 00:00
Orbit: 763 x 765 km, 98.2° (Epoch: 03 December)

Date Brightness Start Highest point End Pass type
(mag) Time Alt. Az. Time Alt. Az. Time Alt. Az.
03 Dec 5.1 06:03:44 10° NNW 06:04:05 11° NNW 06:04:05 11° NNW visible
04 Dec 5.2 05:26:00 10° N 05:26:29 13° N 05:26:29 13° N visible
05 Dec 5.5 04:48:49 10° NNE 04:48:54 10° NNE 04:48:54 10° NNE visible
06 Dec 5.3 05:51:28 10° N 05:51:29 10° N 05:51:29 10° N visible
